SES-11 (ECHOSTAR 105) (42967 NORAD) Tracking and Keplerian Element Data

This shows tracking and keplerian element data for the satellite.

Feedback or suggestion? Click here.




ElementValue
Catalog42967
NameSES-11 (ECHOSTAR 105)
Epoch Orbit403
Epoch Day319.1409939
Epoch Year2018
RAAN124.4914
Inclination0.0342
Eccentricity0.0002388
Argument of Perigee123.5842
Mean Anonmoly111.9278
Mean Motion1.00272888
Decay Rate-8.8E-07
L11 42967U 17063A 18319.14099390 -.00000088 00000-0 00000+0 0 9998
L22 42967 0.0342 124.4914 0002388 123.5842 111.9278 1.00272888 4032

Live tracking and technical data element details for SES-11 (ECHOSTAR 105) (NORAD 42967). SES-11 (ECHOSTAR 105) can be tracked NOW for your location showing map with azimuth and elevation plus other details from your city location.

Track the satellite on the map from your city or location and see movement details for azimuth, elevation, latitude, longitude, range, height, and movement on the map or in text.







IsCatalogInMostPopularTable: catalog: 42967, numindb: 161
Update: records affected: 1



GetName: 42967 SES-11 (ECHOSTAR 105)

Hit Count: updated at: Fri, 16 Nov 2018 09:20:31 GMT